COSMOS 2327

Satellite information

Favourite Embed

Satellite Type and Status

PAYLOADIN ORBIT

Key statistics

Satellite COSMOS 2327 at a glance.

Uptime

10706

Days in orbit

Revolutions

≈ 13.7

Per day

Orbit

LEO

Low Earth Orbit

Inclination

83.0

Latest

Satellite identification and parameters

Extended collection of information and parameters for COSMOS 2327.

Object identification

Identified? True

Debris? False

Object name: COSMOS 2327

International designator: 1996-004A

Object number (NORAD): 23773

Object ID (CCSDS): 23773

Country: COMMONWEALTH OF INDEPENDENT STATES (CIS)

Current information (Y/N): Y

RCS size: LARGE

Orbital parameters

Period: 104.748 minutes

Inclination: 82.9846 deg

SMA: 7360.761 km

Apoapsis: 1017.026 km

Periapsis: 948.226 km

RAAN: 62.6923 deg

Eccentricy: 0.0046734

Argument of periapsis: 309.3905 deg

Mean anomaly: 223.8344 deg

Mean motion: 13.74734038 rev/day

Mean motion (dot): 0.00000068 rev/day2

B* drag term: 0.00005535 1/REarth

Two-line elements (TLE)

Creation date: May 9, 2025, 2:46 a.m.

Reference frame: TEME

Reference center: EARTH

Epoch: May 8, 2025, 1:37 p.m. UTC

TLE line 0: 0 COSMOS 2327

TLE line 1: 1 23773U 96004A 25128.56783750 .00000068 00000-0 55350-4 0 9996

TLE line 2: 2 23773 82.9846 62.6923 0046734 309.3905 223.8344 13.74734038470032

Live tracking on map

Real-time ground track for satellite COSMOS 2327.

In-orbit conjunctions

A list of the most updated potential collisions computed for object COSMOS 2327.

Target Orbit TCA Probability of collision Miss distance Type
CZ-6A DEB LEO 2025-01-05 05:42:26 0.0008972154 772.0 (m) DEBRIS
THORAD AGENA D DEB SSO 2024-11-02 15:28:16 0.0001141521 410.0 (m) DEBRIS
FENGYUN 1C DEB SSO 2024-11-02 11:50:13 0.001162907 101.0 (m) DEBRIS

Associated space launch

Navigation satellite providing location information for the Tsiklon-B navigation system

COSMOS 2327 was lifted into orbit during the mission ‘Kosmos-3M | Parus 85’, on board a Kosmos-3M space rocket.

The launch took place on Jan. 16, 1996, 3:33 p.m. from 132/1 (132L).

For more information about the launch, click the button.

Launch to space Kosmos-3M | Parus 85
Kosmos-3M | Parus 85

Agency: N/A

Status: Launch Successful

Launch date: Jan. 16, 1996, 3:33 p.m. UTC

Rocket: Kosmos-3M

Launch pad: 132/1 (132L)

Location: Plesetsk Cosmodrome, Russian Federation

...

Latest news about this satellite

There are no fresh news available about this satellite. Check back as we update our databases every day.


Newsletter sign-up

Weekly statistics, charts and insights to help you stay on top of the space industry.